Stations météo

Publicité
Nancy/Ochey, France (7181): Température de l'air & dewpoint: 12.08.2019 13:00:00 - 18.08.2019 13:00:00 (CEST)Nancy/Ochey, France (7181): Température de l'air 5cm: 12.08.2019 13:00:00 - 18.08.2019 13:00:00 (CEST)Nancy/Ochey, France (7181): Température de l'air -20cm: 12.08.2019 13:00:00 - 18.08.2019 13:00:00 (CEST)Nancy/Ochey, France (7181): Vitesse du vent & gusts: 12.08.2019 13:00:00 - 18.08.2019 13:00:00 (CEST)Nancy/Ochey, France (7181): Direction du vent: 12.08.2019 13:00:00 - 18.08.2019 13:00:00 (CEST)Nancy/Ochey, France (7181): reduced air pressure: 12.08.2019 13:00:00 - 18.08.2019 13:00:00 (CEST)Nancy/Ochey, France (7181): visibility: 12.08.2019 13:00:00 - 18.08.2019 13:00:00 (CEST)Nancy/Ochey, France (7181): Quantités de précipitations: 12.08.2019 13:00:00 - 18.08.2019 13:00:00 (CEST)
Date & Time tt [°C] td [°C] tt 5cm [°C] tt -20cm [°C] ff [km/h] ff [knt] fx [km/h] fx [knt] dd ppp [hPa] vv [km] rr [mm]
18.08.2019 13:00:00 26,6 17,1 26,7 19,1 30 16 55 30 WSW 1008,3 27 0,0
18.08.2019 12:00:00 26,3 17,6 26,1 19,0 29 16 48 26 SW 1007,6 28 0,0
18.08.2019 11:00:00 24,9 17,6 23,6 19,1 24 13 38 21 SW 1007,7 20 0,0
18.08.2019 10:00:00 23,5 17,5 21,3 19,1 23 13 37 20 SSW 1007,6 16 0,0
18.08.2019 09:00:00 21,7 16,2 22,1 19,1 26 14 36 19 SSW 1007,9 31 0,0
18.08.2019 08:00:00 19,7 16,7 17,4 19,1 14 8 23 12 S 1008,5 31 0,0
18.08.2019 07:00:00 18,3 16,5 16,4 19,2 17 9 23 13 SSW 1008,8 37 0,0
18.08.2019 06:00:00 17,7 16,6 16,6 19,2 14 7 19 11 SSE 1009,1 49 0,0
18.08.2019 05:00:00 18,2 17,0 17,1 19,2 13 7 23 12 SSW 1009,4 53 0,0
18.08.2019 04:00:00 18,2 16,9 17,4 19,2 17 9 25 14 SSW 1009,9 58 0,0
18.08.2019 03:00:00 18,9 17,2 17,9 19,2 18 10 28 15 SW 1010,2 57 0,0
18.08.2019 02:00:00 18,8 16,6 16,8 19,2 17 9 32 17 SSW 1010,2 55 0,0
18.08.2019 01:00:00 17,4 16,4 16,6 19,3 15 8 22 12 S 1010,8 46 0,0
18.08.2019 00:00:00 17,1 16,5 16,7 19,3 14 8 21 12 SSE 1010,7 19 0,0
17.08.2019 23:00:00 17,0 16,4 16,6 19,2 13 7 20 11 SSE 1011,3 15 0,2
17.08.2019 22:00:00 17,1 16,5 16,6 19,2 14 8 23 12 SSE 1011,6 8 0,8
17.08.2019 21:00:00 17,1 16,1 16,7 19,2 9 5 16 9 S 1011,4 20 0,4
17.08.2019 20:00:00 17,3 16,3 16,8 19,2 15 8 23 12 SSW 1012,1 9 1,8
17.08.2019 19:00:00 17,2 16,2 16,8 19,2 14 7 22 12 SSW 1012,5 6 3,3
17.08.2019 18:00:00 17,0 15,7 17,0 19,2 8 5 15 8 SSW 1012,7 8 1,2
17.08.2019 17:00:00 17,1 15,3 16,5 19,2 3 2 19 10 ENE 1012,7 7 2,2
17.08.2019 16:00:00 17,4 15,2 16,3 19,2 13 7 31 17 SW 1013,1 10 0,2
17.08.2019 15:00:00 17,9 13,8 16,7 19,2 28 15 50 27 SSW 1013,3 22 0,2
17.08.2019 14:00:00 19,6 12,8 19,6 19,2 29 16 45 24 SSW 1013,2 45 0,0
17.08.2019 13:00:00 19,3 12,8 19,4 19,3 31 17 48 26 SW 1013,4 53 0,0
17.08.2019 12:00:00 19,8 13,3 18,3 19,3 27 15 40 22 SW 1013,1 44 0,0
17.08.2019 11:00:00 17,5 11,7 15,0 19,3 22 12 32 18 SSW 1013,6 48 0,2
17.08.2019 10:00:00 18,6 12,8 17,9 19,3 19 10 32 17 SW 1013,5 46 0,0
17.08.2019 09:00:00 18,0 12,9 16,1 19,3 14 8 21 12 SSW 1013,3 60 0,0
17.08.2019 08:00:00 17,0 12,9 14,8 19,4 10 6 19 11 S 1012,9 55 0,2
17.08.2019 07:00:00 17,7 11,9 15,4 19,4 13 7 22 12 SSW 1012,7 41 0,0
17.08.2019 06:00:00 18,3 10,9 17,4 19,4 15 8 27 14 SSW 1012,5 60 0,0
17.08.2019 05:00:00 18,5 10,8 17,5 19,5 16 9 23 13 SW 1012,6 60 0,0
17.08.2019 04:00:00 18,5 10,6 17,4 19,4 13 7 24 13 SSW 1012,6 60 0,0
17.08.2019 03:00:00 18,9 10,2 17,7 19,5 15 8 23 12 S 1012,9 59 0,0
17.08.2019 02:00:00 19,0 10,0 17,7 19,5 18 10 24 13 SSW 1013,1 60 0,0
17.08.2019 01:00:00 19,0 10,3 17,6 19,4 19 10 31 17 SSW 1013,4 60 0,0
17.08.2019 00:00:00 20,0 10,1 18,4 19,4 20 11 28 15 S 1013,7 60 0,0
16.08.2019 23:00:00 20,2 10,0 18,9 19,3 16 9 28 15 SSW 1014,2 60 0,0
16.08.2019 22:00:00 20,5 10,3 19,1 19,3 15 8 24 13 S 1013,9 60 0,0
16.08.2019 21:00:00 21,1 10,3 19,7 19,2 14 8 22 12 SSE 1013,7 60 0,0
16.08.2019 20:00:00 22,1 10,3 21,0 19,1 12 6 21 11 SSE 1013,7 60 0,0
16.08.2019 19:00:00 23,1 9,5 23,2 19,0 11 6 29 15 S 1013,9 60 0,0
16.08.2019 18:00:00 25,0 9,7 28,7 18,9 16 9 31 17 WSW 1014,2 59 0,0
16.08.2019 17:00:00 24,7 9,4 26,3 18,9 14 8 30 16 WSW 1015,1 43 0,0
16.08.2019 16:00:00 24,2 9,7 24,3 18,8 11 6 32 17 SW 1015,7 21 0,0
16.08.2019 15:00:00 23,3 10,4 24,6 18,8 9 5 35 19 SW 1016,5 58 0,0
16.08.2019 14:00:00 21,8 10,6 24,6 18,8 10 5 27 15 SW 1017,7 58 0,0
16.08.2019 13:00:00 21,3 10,5 22,4 18,8 15 8 25 14 SSW 1018,2 35 0,0
16.08.2019 12:00:00 19,9 10,6 22,2 18,8 14 7 24 13 WSW 1018,7 57 0,0
16.08.2019 11:00:00 19,2 10,7 20,2 18,8 6 3 17 9 SW 1019,2 50 0,0
16.08.2019 10:00:00 17,4 11,7 18,1 18,9 4 2 9 5 W 1020,0 53 0,0
16.08.2019 09:00:00 16,0 11,4 17,7 19,0 4 2 11 6 W 1020,5 39 0,0
16.08.2019 08:00:00 14,6 11,6 10,6 19,0 10 5 12 7 SW 1020,4 44 0,0
16.08.2019 07:00:00 12,4 10,3 10,5 19,1 6 4 14 8 W 1020,3 34 0,0
16.08.2019 06:00:00 13,5 11,2 12,2 19,2 9 5 14 8 SSW 1020,2 37 0,0
16.08.2019 05:00:00 13,0 10,9 9,3 19,2 8 4 12 7 SW 1020,1 42 0,0
16.08.2019 04:00:00 13,0 10,5 9,7 19,2 8 5 11 6 S 1020,3 36 0,0
16.08.2019 03:00:00 13,5 11,0 10,3 19,3 6 4 11 6 S 1020,5 40 0,0
16.08.2019 02:00:00 14,2 11,0 12,6 19,3 7 4 14 8 WSW 1020,4 43 0,0
16.08.2019 01:00:00 15,2 11,2 13,2 19,3 11 6 13 7 SSW 1020,1 43 0,0
16.08.2019 00:00:00 15,7 11,5 14,0 19,3 9 5 14 7 WSW 1020,0 45 0,0
15.08.2019 23:00:00 15,3 11,7 13,8 19,3 9 5 19 10 SW 1019,5 44 0,0
15.08.2019 22:00:00 16,4 11,3 13,3 19,3 13 7 18 10 SSW 1018,8 47 0,0
15.08.2019 21:00:00 16,9 10,7 14,0 19,2 8 4 26 14 WSW 1018,1 49 0,0
15.08.2019 20:00:00 19,0 11,3 18,2 19,2 13 7 34 18 W 1017,2 46 0,0
15.08.2019 19:00:00 18,7 12,4 16,1 19,2 13 7 34 18 W 1016,9 45 0,0
15.08.2019 18:00:00 17,1 13,0 14,8 19,2 18 10 49 27 WNW 1016,6 15 0,0
15.08.2019 17:00:00 21,9 9,8 23,1 19,1 28 15 52 28 W 1015,1 35 0,0
15.08.2019 16:00:00 21,4 11,7 21,9 19,1 30 16 52 28 W 1014,9 20 0,0
15.08.2019 15:00:00 20,8 12,2 21,4 19,0 28 15 54 29 W 1014,8 47 0,0
15.08.2019 14:00:00 20,9 11,5 20,9 19,0 22 12 45 24 W 1014,4 55 0,0
15.08.2019 13:00:00 22,9 12,5 21,4 19,0 27 15 49 26 W 1013,8 20 0,0
15.08.2019 12:00:00 21,1 12,2 20,6 19,1 22 12 58 31 W 1013,9 38 0,0
15.08.2019 11:00:00 19,5 12,7 19,8 19,1 29 16 44 24 WSW 1014,0 40 0,0
15.08.2019 10:00:00 18,4 12,8 18,5 19,2 27 15 47 26 W 1014,2 43 0,0
15.08.2019 09:00:00 18,7 12,4 17,4 19,2 24 13 36 19 SW 1013,9 32 0,0
15.08.2019 08:00:00 17,1 11,8 14,9 19,2 20 11 29 16 SW 1013,9 53 0,0
15.08.2019 07:00:00 15,6 11,6 13,7 19,3 10 6 18 10 S 1013,9 60 0,0
15.08.2019 06:00:00 15,2 11,8 14,5 19,3 13 7 29 16 SW 1014,0 54 0,0
15.08.2019 05:00:00 15,9 11,1 14,9 19,3 10 5 22 12 SW 1014,1 57 0,0
15.08.2019 04:00:00 15,9 11,5 13,4 19,3 16 9 38 20 S 1014,5 48 0,2
15.08.2019 03:00:00 17,7 9,1 16,6 19,3 23 12 34 19 SW 1014,8 55 0,0
15.08.2019 02:00:00 18,2 9,0 17,1 19,4 23 13 36 19 SSW 1015,1 53 0,0
15.08.2019 01:00:00 18,4 8,9 16,7 19,3 23 12 35 19 SSW 1015,0 55 0,0
15.08.2019 00:00:00 18,5 9,0 16,5 19,3 22 12 36 19 S 1015,2 56 0,0
14.08.2019 23:00:00 18,1 9,2 15,6 19,3 16 9 25 14 S 1015,4 57 0,0
14.08.2019 22:00:00 18,0 9,3 13,5 19,2 13 7 22 12 SSE 1015,9 54 0,0
14.08.2019 21:00:00 19,3 8,9 16,4 19,2 10 6 23 12 S 1015,5 55 0,0
14.08.2019 20:00:00 21,6 8,5 21,0 19,1 14 8 23 12 S 1015,4 56 0,0
14.08.2019 19:00:00 22,5 8,2 23,3 19,0 15 8 24 13 SSW 1015,7 51 0,0
14.08.2019 18:00:00 22,2 8,7 23,3 18,9 14 7 29 16 SSW 1016,2 47 0,0
14.08.2019 17:00:00 22,2 8,3 23,6 18,9 14 7 28 15 SW 1016,8 51 0,0
14.08.2019 16:00:00 22,5 8,6 23,9 18,8 16 9 34 18 SW 1017,2 43 0,0
14.08.2019 15:00:00 21,6 8,5 23,8 18,8 19 10 32 17 SW 1017,8 29 0,0
14.08.2019 14:00:00 21,7 9,2 23,2 18,8 10 5 38 21 WSW 1018,3 47 0,0
14.08.2019 13:00:00 21,0 9,3 24,6 18,8 13 7 30 16 W 1018,8 31 0,0
14.08.2019 12:00:00 19,2 8,8 22,3 18,9 13 7 26 14 WSW 1019,5 40 0,0
14.08.2019 11:00:00 18,4 8,6 19,0 18,9 15 8 23 13 SSW 1020,0 44 0,0
14.08.2019 10:00:00 16,0 9,0 - - 9 5 - - S - 10 -
14.08.2019 09:00:00 13,9 8,5 12,9 19,1 5 3 8 4 SW 1020,8 53 0,0
14.08.2019 08:00:00 12,4 8,9 11,2 19,2 6 4 11 6 S 1020,7 48 0,0
14.08.2019 07:00:00 11,5 8,5 9,9 19,2 8 5 10 5 SSE 1020,6 37 0,0
14.08.2019 06:00:00 10,8 8,2 6,7 19,3 4 2 6 3 S 1020,7 39 0,0
14.08.2019 05:00:00 10,5 8,1 7,5 19,4 3 1 11 6 S 1020,8 42 0,0
14.08.2019 04:00:00 11,4 8,4 8,0 19,4 10 6 14 7 SSE 1020,7 42 0,0
14.08.2019 03:00:00 11,2 7,9 7,0 19,5 4 2 8 4 SSW 1021,0 43 0,0
14.08.2019 02:00:00 12,3 7,6 8,0 19,5 6 4 8 4 SW 1021,0 41 0,0
14.08.2019 01:00:00 12,7 7,6 8,2 19,5 4 2 6 4 SSW 1021,1 51 0,0
14.08.2019 00:00:00 13,2 7,4 10,0 19,5 4 2 17 9 W 1021,1 50 0,0
13.08.2019 23:00:00 13,6 6,7 10,0 19,5 8 4 14 8 W 1020,7 47 0,0
13.08.2019 22:00:00 14,4 6,2 10,1 19,5 5 3 15 8 WSW 1020,5 52 0,0
13.08.2019 21:00:00 15,4 6,1 11,5 19,4 7 4 20 11 W 1019,8 54 0,0
13.08.2019 20:00:00 18,2 6,1 17,8 19,3 11 6 25 13 W 1019,4 55 0,0
13.08.2019 19:00:00 19,7 5,0 20,4 19,3 13 7 23 13 W 1019,0 42 0,0
13.08.2019 18:00:00 19,4 4,7 20,1 19,2 14 8 27 15 WNW 1019,1 46 0,0
13.08.2019 17:00:00 20,7 7,0 21,0 19,2 15 8 29 15 W 1018,8 39 0,0
13.08.2019 16:00:00 20,2 6,5 21,1 19,1 10 6 30 16 W 1019,3 40 0,0
13.08.2019 15:00:00 18,5 6,7 21,6 19,1 10 6 27 15 WNW 1019,8 41 0,0
13.08.2019 14:00:00 18,4 7,2 18,5 19,1 8 4 28 15 WNW 1020,1 18 0,0
13.08.2019 13:00:00 18,0 7,4 19,1 19,1 9 5 26 14 NW 1020,7 55 0,0
13.08.2019 12:00:00 17,1 9,0 17,8 19,1 12 6 29 16 W 1021,2 44 0,0
13.08.2019 11:00:00 15,9 9,1 15,9 19,2 13 7 25 14 W 1021,5 42 0,0
13.08.2019 10:00:00 14,4 9,2 15,1 19,3 13 7 26 14 WSW 1021,8 41 0,0
13.08.2019 09:00:00 13,7 10,9 13,4 19,4 12 6 21 12 WSW 1021,8 32 0,0
13.08.2019 08:00:00 12,5 11,1 10,7 19,5 12 7 18 10 WSW 1021,6 32 0,0
13.08.2019 07:00:00 11,1 10,2 10,7 19,6 9 5 13 7 SW 1021,0 16 0,0
13.08.2019 06:00:00 10,9 10,1 8,9 19,7 4 2 15 8 S 1020,6 18 0,0
13.08.2019 05:00:00 11,1 10,0 10,1 19,7 9 5 20 11 SW 1020,1 24 0,0
13.08.2019 04:00:00 11,4 10,1 10,3 19,7 13 7 19 11 WSW 1020,1 38 0,2
13.08.2019 03:00:00 11,7 10,1 10,7 19,8 16 8 22 12 SW 1019,8 42 0,0
13.08.2019 02:00:00 12,6 10,8 11,7 19,8 16 9 22 12 SSW 1019,6 46 0,0
13.08.2019 01:00:00 13,0 11,6 12,1 19,8 19 10 23 12 SSW 1019,5 39 0,0
13.08.2019 00:00:00 13,6 12,0 12,4 19,8 16 8 21 11 SSW 1019,1 34 0,0
12.08.2019 23:00:00 13,7 12,1 12,6 19,8 11 6 22 12 SSW 1018,8 38 0,0
12.08.2019 22:00:00 14,2 12,4 13,1 19,8 15 8 24 13 SSW 1018,5 40 0,0
12.08.2019 21:00:00 15,3 12,8 14,1 19,8 11 6 22 12 SW 1017,7 48 0,0
12.08.2019 20:00:00 16,7 13,2 16,8 19,7 14 7 25 14 S 1017,0 50 0,0
12.08.2019 19:00:00 17,5 13,2 18,7 19,7 13 7 23 12 S 1016,3 38 0,0
12.08.2019 18:00:00 17,6 14,3 16,6 19,7 17 9 24 13 SSW 1016,1 44 0,2
12.08.2019 17:00:00 16,6 13,9 14,2 19,6 10 5 17 9 SW 1016,5 15 1,1
12.08.2019 16:00:00 14,6 12,6 13,7 19,6 9 5 49 27 WSW 1017,3 3,8 3,4
12.08.2019 15:00:00 20,1 10,8 22,1 19,6 16 9 35 19 S 1015,9 36 0,0
12.08.2019 14:00:00 20,5 12,2 22,8 19,6 19 10 29 16 SSE 1016,2 17 0,0
12.08.2019 13:00:00 18,5 12,5 20,4 19,7 15 8 23 13 SE 1017,2 35 0,0

tt = Température de l'air
td = dewpoint
tt 5cm = Température de l'air 5cm
tt -20cm = Température de l'air -20cm
ff = Vitesse du vent
fx = gusts
dd = Direction du vent
ppp = reduced air pressure
vv = visibility
rr = Quantités de précipitations

stations d'obs. à proximité